FENGYUN 1C DEB

Satellite information

Favourite Embed

Satellite Type and Status

DEBRISIN ORBIT

Key statistics

Satellite FENGYUN 1C DEB at a glance.

Uptime

9671

Days in orbit

Revolutions

≈ 14.9

Per day

Orbit

SSO

Sun Synchronous Orbit

Inclination

98.7

Latest

Satellite identification and parameters

Extended collection of information and parameters for FENGYUN 1C DEB.

Object identification

Identified? True

Debris? True

Object name: FENGYUN 1C DEB

International designator: 1999-025EMJ

Object number (NORAD): 37717

Object ID (CCSDS): 37717

Country: PEOPLES REPUBLIC OF CHINA (PRC)

Current information (Y/N): Y

RCS size: SMALL

Orbital parameters

Period: 96.609 minutes

Inclination: 98.7214 deg

SMA: 6974.353 km

Apoapsis: 635.682 km

Periapsis: 556.754 km

RAAN: 250.9336 deg

Eccentricy: 0.00565847

Argument of periapsis: 255.419 deg

Mean anomaly: 117.9499 deg

Mean motion: 14.90551182 rev/day

Mean motion (dot): 0.00032591 rev/day2

B* drag term: 0.003227411 1/REarth

Two-line elements (TLE)

Creation date: Oct. 27, 2025, 10:32 a.m.

Reference frame: TEME

Reference center: EARTH

Epoch: Oct. 27, 2025, 3:27 a.m. UTC

TLE line 0: 0 FENGYUN 1C DEB

TLE line 1: 1 37717U 99025EMJ 25300.14439383 .00032591 00000-0 32274-2 0 9995

TLE line 2: 2 37717 98.7214 250.9336 0056585 255.4190 117.9499 14.90551182887033

Live tracking on map

Real-time ground track for satellite FENGYUN 1C DEB.

In-orbit conjunctions

A list of the most updated potential collisions computed for object FENGYUN 1C DEB.

Target Orbit TCA Probability of collision Miss distance Type
CZ-6A DEB LEO 2024-09-18 06:15:40 0.0001404285 921.0 (m) DEBRIS
NOAA 16 DEB SSO 2024-07-19 03:52:42 0.0001053122 55.0 (m) DEBRIS

Associated space launch

Chinese polar orbiting meteorological satellite

FENGYUN 1C DEB was lifted into orbit during the mission ‘Long March 4B | Feng Yun 1C’, on board a Long March 4B space rocket.

The launch took place on May 10, 1999, 1:33 a.m. from Launch Complex 7.

For more information about the launch, click the button.

Launch to space Long March 4B | Feng Yun 1C
Long March 4B | Feng Yun 1C

Agency: N/A

Status: Launch Successful

Launch date: May 10, 1999, 1:33 a.m. UTC

Rocket: Long March 4B

Launch pad: Launch Complex 7

Location: Taiyuan Satellite Launch Center, People's Republic of China

...

Latest news about this satellite

There are no fresh news available about this satellite. Check back as we update our databases every day.


Newsletter sign-up

Weekly statistics, charts and insights to help you stay on top of the space industry.